Lincoln, CA

8:55 PM PDT on June 25, 2017 (GMT -0700)
Lincoln Regional-Harder

Weather History for KLHM - May, 2014

Change the Weather History Date:

Monday, May 5, 2014

  Actual Average (KAUN) Record (KAUN)
Temperature  
Mean Temperature 61 °F -  
Max Temperature 71 °F 73 °F 90 °F (1990)
Min Temperature 51 °F 48 °F 36 °F (1975)
Degree Days  
Heating Degree Days 4    
Growing Degree Days 11 (Base 50)    
Moisture  
Dew Point 44 °F    
Average Humidity 60    
Maximum Humidity 94    
Minimum Humidity 27    
Precipitation  
Precipitation 0.12 in - - ()
Sea Level Pressure  
Sea Level Pressure 29.94 in    
Wind  
Wind Speed 10 mph (SSE)    
Max Wind Speed 14 mph    
Max Gust Speed 26 mph    
Visibility 10 miles    
Events      
Averages and records for this station are not official NWS values.
T = Trace of Precipitation, MM = Missing Value Source: NWS Daily Summary

Daily Weather History Graph

Daily Weather History Graph

Search for Another Location

Airport or City:

Trip Planner

Search our weather history database for the weather conditions in past years. The results will help you decide how hot, cold, wet, or windy it might be!

Date:

Astronomy

May. 05, 2014 Rise Set
Actual Time 6:02 AM PDT 8:01 PM PDT
Civil Twilight 5:33 AM PDT 8:31 PM PDT
Nautical Twilight 4:58 AM PDT 9:06 PM PDT
Astronomical Twilight 4:19 AM PDT 9:45 PM PDT
Moon 11:27 AM PDT (5/5) 12:49 AM PDT (5/5)
Length of Visible Light 14h 57m
Length of Day
13h 59m
Waxing Crescent, 37% of the Moon is Illuminated
May 5
Waxing Crescent
May 6
First Quarter
May 14
Full
May 21
Last Quarter
May 28
New

Hourly Weather History & Observations

Time (PDT) Temp. Dew Point Humidity Pressure Visibility Wind Dir Wind Speed Gust Speed Precip Events Conditions
12:15 AM 59.0 °F 48.2 °F 67% 29.98 in 10.0 mi SSE 12.7 mph - N/A   Clear
12:35 AM 57.2 °F 46.4 °F 67% 29.99 in 10.0 mi SSE 13.8 mph - N/A   Clear
12:55 AM 57.2 °F 46.4 °F 67% 29.99 in 10.0 mi SSE 11.5 mph - N/A   Clear
1:15 AM 55.4 °F 46.4 °F 72% 29.99 in 10.0 mi SSE 11.5 mph - N/A   Clear
1:35 AM 55.4 °F 46.4 °F 72% 29.98 in 10.0 mi SSE 10.4 mph - N/A   Clear
1:55 AM 55.4 °F 46.4 °F 72% 29.98 in 10.0 mi SSE 11.5 mph - N/A   Clear
2:15 AM 55.4 °F 46.4 °F 72% 29.97 in 10.0 mi SSE 11.5 mph - N/A   Clear
2:35 AM 55.4 °F 46.4 °F 72% 29.97 in 10.0 mi SSE 10.4 mph - N/A   Clear
2:55 AM 55.4 °F 46.4 °F 72% 29.97 in 10.0 mi SSE 11.5 mph - N/A   Clear
3:15 AM 55.4 °F 46.4 °F 72% 29.96 in 10.0 mi SSE 12.7 mph 17.3 mph N/A   Clear
3:35 AM 55.4 °F 46.4 °F 72% 29.97 in 10.0 mi SSE 10.4 mph - N/A   Clear
3:55 AM 53.6 °F 46.4 °F 77% 29.97 in 10.0 mi SE 11.5 mph - N/A   Clear
4:15 AM 53.6 °F 46.4 °F 77% 29.96 in 10.0 mi SSE 10.4 mph - N/A   Clear
4:35 AM 53.6 °F 46.4 °F 77% 29.96 in 10.0 mi SE 12.7 mph - N/A   Clear
4:55 AM 53.6 °F 46.4 °F 77% 29.96 in 10.0 mi SE 12.7 mph - N/A   Clear
5:15 AM 53.6 °F 46.4 °F 77% 29.96 in 10.0 mi SE 11.5 mph - N/A   Clear
5:35 AM 53.6 °F 46.4 °F 77% 29.96 in 10.0 mi SSE 10.4 mph - N/A   Clear
5:55 AM 53.6 °F 46.4 °F 77% 29.96 in 10.0 mi SSE 10.4 mph - N/A   Clear
6:15 AM 53.6 °F 46.4 °F 77% 29.96 in 10.0 mi SSE 10.4 mph - N/A   Clear
6:35 AM 53.6 °F 46.4 °F 77% 29.97 in 10.0 mi SSE 9.2 mph - N/A   Clear
6:55 AM 53.6 °F 46.4 °F 77% 29.97 in 10.0 mi SSE 9.2 mph - N/A   Clear
7:15 AM 53.6 °F 44.6 °F 72% 29.97 in 10.0 mi SSE 10.4 mph - N/A   Clear
7:35 AM 53.6 °F 44.6 °F 72% 29.97 in 10.0 mi SE 9.2 mph - N/A   Clear
7:55 AM 55.4 °F 44.6 °F 67% 29.97 in 10.0 mi SSE 11.5 mph 16.1 mph N/A   Clear
8:15 AM 55.4 °F 44.6 °F 67% 29.98 in 10.0 mi SSE 11.5 mph - N/A   Clear
8:35 AM 59.0 °F 44.6 °F 59% 29.98 in 10.0 mi SSE 12.7 mph - N/A   Clear
8:55 AM 59.0 °F 44.6 °F 59% 29.99 in 10.0 mi SE 12.7 mph - N/A   Clear
9:15 AM 60.8 °F 44.6 °F 55% 29.99 in 10.0 mi SSE 9.2 mph - N/A   Clear
9:35 AM 60.8 °F 42.8 °F 52% 29.99 in 10.0 mi SSE 10.4 mph 16.1 mph N/A   Clear
9:55 AM 62.6 °F 42.8 °F 48% 29.99 in 10.0 mi SSE 9.2 mph - N/A   Clear
10:15 AM 62.6 °F 42.8 °F 48% 29.99 in 10.0 mi SSE 6.9 mph - N/A   Clear
10:35 AM 62.6 °F 42.8 °F 48% 29.99 in 10.0 mi SSE 10.4 mph - N/A   Clear
10:55 AM 64.4 °F 42.8 °F 45% 29.99 in 10.0 mi SE 8.1 mph - N/A   Clear
11:15 AM 64.4 °F 41.0 °F 42% 29.99 in 10.0 mi South 6.9 mph - N/A   Clear
11:35 AM 64.4 °F 41.0 °F 42% 29.99 in 10.0 mi South 5.8 mph - N/A   Scattered Clouds
11:55 AM 64.4 °F 41.0 °F 42% 29.98 in 10.0 mi South 8.1 mph - N/A   Mostly Cloudy
12:15 PM 64.4 °F 41.0 °F 42% 29.98 in 10.0 mi South 4.6 mph - N/A   Overcast
12:35 PM 64.4 °F 41.0 °F 42% 29.97 in 10.0 mi Calm Calm - N/A   Overcast
12:55 PM 68.0 °F 39.2 °F 35% 29.96 in 10.0 mi SSE 8.1 mph - N/A   Mostly Cloudy
1:15 PM 69.8 °F 41.0 °F 35% 29.96 in 10.0 mi SSE 8.1 mph - N/A   Scattered Clouds
1:35 PM 68.0 °F 37.4 °F 33% 29.95 in 10.0 mi WSW 4.6 mph - N/A   Scattered Clouds
1:55 PM 69.8 °F 37.4 °F 31% 29.95 in 10.0 mi South 5.8 mph - N/A   Scattered Clouds
2:15 PM 68.0 °F 35.6 °F 30% 29.94 in 10.0 mi SSE 5.8 mph - N/A   Scattered Clouds
2:35 PM 69.8 °F 37.4 °F 31% 29.93 in 10.0 mi SW 3.5 mph - N/A   Scattered Clouds
2:55 PM 69.8 °F 35.6 °F 28% 29.92 in 10.0 mi ESE 3.5 mph - N/A   Scattered Clouds
3:15 PM 71.6 °F 35.6 °F 27% 29.91 in 10.0 mi South 6.9 mph - N/A   Scattered Clouds
3:35 PM 69.8 °F 35.6 °F 28% 29.89 in 10.0 mi SE 3.5 mph - N/A   Scattered Clouds
3:55 PM 69.8 °F 35.6 °F 28% 29.89 in 10.0 mi South 3.5 mph - N/A   Scattered Clouds
4:15 PM 71.6 °F 35.6 °F 27% 29.88 in 10.0 mi West 3.5 mph - N/A   Mostly Cloudy
4:35 PM 71.6 °F 35.6 °F 27% 29.87 in 10.0 mi SSW 5.8 mph - N/A   Scattered Clouds
4:55 PM 69.8 °F 35.6 °F 28% 29.86 in 10.0 mi SSE 4.6 mph - N/A   Scattered Clouds
5:15 PM 69.8 °F 35.6 °F 28% 29.86 in 10.0 mi SE 8.1 mph - N/A   Scattered Clouds
5:35 PM 69.8 °F 41.0 °F 35% 29.86 in 10.0 mi SSW 11.5 mph - N/A   Mostly Cloudy
5:55 PM 68.0 °F 41.0 °F 37% 29.85 in 10.0 mi SSW 9.2 mph - N/A   Scattered Clouds
6:15 PM 68.0 °F 41.0 °F 37% 29.85 in 10.0 mi South 8.1 mph - N/A   Mostly Cloudy
6:35 PM 68.0 °F 42.8 °F 40% 29.85 in 10.0 mi SSW 13.8 mph - N/A   Mostly Cloudy
6:55 PM 64.4 °F 42.8 °F 45% 29.86 in 10.0 mi WSW 11.5 mph - N/A   Mostly Cloudy
7:15 PM 59.0 °F 46.4 °F 63% 29.88 in 10.0 mi NNW 13.8 mph 26.5 mph N/A   Overcast
7:35 PM 55.4 °F 48.2 °F 77% 29.89 in 10.0 mi NW 9.2 mph - N/A   Overcast
7:55 PM 53.6 °F 50.0 °F 88% 29.90 in 10.0 mi North 11.5 mph - 0.01 in   Overcast
8:15 PM 53.6 °F 50.0 °F 88% 29.90 in 7.0 mi NE 11.5 mph - 0.08 in   Overcast
8:35 PM 53.6 °F 50.0 °F 88% 29.88 in 10.0 mi NE 12.7 mph - 0.11 in   Overcast
8:55 PM 53.6 °F 50.0 °F 88% 29.88 in 10.0 mi NE 9.2 mph - N/A   Overcast
9:15 PM 53.6 °F 50.0 °F 88% 29.90 in 10.0 mi SE 3.5 mph - N/A   Overcast
9:35 PM 53.6 °F 50.0 °F 88% 29.91 in 10.0 mi West 3.5 mph - N/A   Mostly Cloudy
10:15 PM 51.8 °F 50.0 °F 94% 29.91 in 10.0 mi North 3.5 mph - N/A   Clear
10:35 PM 51.8 °F 50.0 °F 94% 29.91 in 10.0 mi Calm Calm - N/A   Clear
10:55 PM 51.8 °F 50.0 °F 94% 29.90 in 10.0 mi Calm Calm - N/A   Clear
11:15 PM 51.8 °F 50.0 °F 94% 29.90 in 10.0 mi Calm Calm - N/A   Clear
11:35 PM 51.8 °F 50.0 °F 94% 29.90 in 10.0 mi NW 3.5 mph - N/A   Clear
11:55 PM 51.8 °F 50.0 °F 94% 29.90 in 10.0 mi Calm Calm - N/A   Mostly Cloudy